When you browse on this site, cookies collect data to enhance your experience and personalize the content and advertising you see.
Visit our Privacy Policy to learn more. By continuing to use the site, you agree to this use of cookies and data.
  • In Lithuania
  • List of Countries
  • For 7 days
  • Water Temperature
  • Satellite Maps
  • Weather Map
  • Weather Widgets
  • user-avatar
    Login

    Hourly Weather Luanda

    Today, 21 February, Thursday

    Time Temperature Precipitation Wind Pressure Humidity
    00:00 +29°C° 0 mm 3 mps 753 mmHg 74%
    01:00 +29°C° 0 mm 3 mps 754 mmHg 74%
    02:00 +29°C° 0 mm 3 mps 753 mmHg 75%
    03:00 +29°C° 0 mm 3 mps 753 mmHg 76%
    04:00 +28°C° 0 mm 3 mps 753 mmHg 76%
    05:00 +28°C° 0 mm 2 mps 753 mmHg 77%
    06:00 +28°C° 0 mm 2 mps 754 mmHg 77%
    07:00 +28°C° 0 mm 1 mps 754 mmHg 77%
    08:00 +30°C° 0 mm 1 mps 754 mmHg 72%
    09:00 +29°C° 0 mm 0 mps 754 mmHg 66%
    10:00 +30°C° 0 mm 0 mps 755 mmHg 60%
    11:00 +34°C° 0 mm 2 mps 754 mmHg 57%
    12:00 +35°C° 0 mm 3 mps 754 mmHg 53%
    13:00 +36°C° 0 mm 5 mps 754 mmHg 49%
    14:00 +35°C° 0.4 mm 5 mps 753 mmHg 55%
    15:00 +33°C° 0.4 mm 5 mps 753 mmHg 61%
    16:00 +32°C° 0.4 mm 6 mps 753 mmHg 67%
    17:00 +30°C° 0.2 mm 5 mps 753 mmHg 71%
    18:00 +29°C° 0.2 mm 5 mps 754 mmHg 74%
    19:00 +29°C° 0.2 mm 4 mps 754 mmHg 77%
    20:00 +29°C° 0.3 mm 3 mps 755 mmHg 79%
    21:00 +28°C° 0.3 mm 3 mps 755 mmHg 80%
    22:00 +28°C° 0.3 mm 2 mps 756 mmHg 82%
    23:00 +28°C° 0.3 mm 2 mps 756 mmHg 82%

    Tomorrow, 22 February, Friday

    Time Temperature Precipitation Wind Pressure Humidity
    00:00 +28°C° 0.3 mm 2 mps 755 mmHg 83%
    01:00 +28°C° 0.3 mm 1 mps 755 mmHg 83%
    02:00 +28°C° 1.1 mm 1 mps 755 mmHg 84%
    03:00 +28°C° 1.1 mm 1 mps 755 mmHg 85%
    04:00 +27°C° 1.1 mm 1 mps 754 mmHg 86%
    05:00 +27°C° 0.1 mm 1 mps 755 mmHg 86%
    06:00 +27°C° 0.1 mm 2 mps 755 mmHg 86%
    07:00 +27°C° 0.1 mm 2 mps 755 mmHg 85%
    08:00 +28°C° 0 mm 2 mps 756 mmHg 78%
    09:00 +30°C° 0 mm 2 mps 756 mmHg 71%
    10:00 +31°C° 0 mm 2 mps 756 mmHg 65%
    11:00 +32°C° 0 mm 2 mps 756 mmHg 59%
    12:00 +34°C° 0 mm 2 mps 755 mmHg 53%
    13:00 +35°C° 0 mm 3 mps 755 mmHg 47%
    14:00 +35°C° 0 mm 3 mps 754 mmHg 48%
    15:00 +35°C° 0 mm 3 mps 754 mmHg 49%
    16:00 +34°C° 0 mm 4 mps 753 mmHg 51%
    17:00 +33°C° 0 mm 3 mps 753 mmHg 55%
    18:00 +31°C° 0 mm 3 mps 753 mmHg 59%
    19:00 +30°C° 0 mm 3 mps 754 mmHg 63%
    20:00 +30°C° 0 mm 2 mps 754 mmHg 65%
    21:00 +30°C° 0 mm 1 mps 754 mmHg 67%
    22:00 +29°C° 0 mm 1 mps 755 mmHg 69%
    23:00 +29°C° 0 mm 1 mps 754 mmHg 71%

    Day after tomorrow, 23 February, Saturday

    Time Temperature Precipitation Wind Pressure Humidity
    00:00 +29°C° 0 mm 2 mps 754 mmHg 72%
    01:00 +28°C° 0 mm 3 mps 753 mmHg 74%
    02:00 +28°C° 0 mm 3 mps 753 mmHg 75%
    03:00 +27°C° 0 mm 3 mps 752 mmHg 75%
    04:00 +27°C° 0 mm 4 mps 752 mmHg 76%
    05:00 +27°C° 0 mm 3 mps 752 mmHg 75%
    06:00 +27°C° 0 mm 3 mps 753 mmHg 74%
    07:00 +27°C° 0 mm 3 mps 753 mmHg 73%
    08:00 +29°C° 0 mm 2 mps 753 mmHg 65%
    09:00 +31°C° 0 mm 2 mps 754 mmHg 58%
    10:00 +32°C° 0 mm 1 mps 754 mmHg 50%
    11:00 +34°C° 0 mm 2 mps 753 mmHg 48%
    12:00 +35°C° 0 mm 3 mps 753 mmHg 45%
    13:00 +36°C° 0 mm 4 mps 752 mmHg 42%
    14:00 +36°C° 0 mm 5 mps 751 mmHg 45%
    15:00 +35°C° 0 mm 5 mps 750 mmHg 48%
    16:00 +34°C° 0 mm 5 mps 750 mmHg 51%
    17:00 +33°C° 0 mm 5 mps 750 mmHg 57%
    18:00 +32°C° 0 mm 4 mps 750 mmHg 63%
    19:00 +29°C° 0 mm 3 mps 751 mmHg 69%
    20:00 +29°C° 0 mm 3 mps 751 mmHg 71%
    21:00 +29°C° 0 mm 2 mps 752 mmHg 73%
    22:00 +29°C° 0 mm 2 mps 753 mmHg 75%
    23:00 +29°C° 0 mm 1 mps 752 mmHg 76%

    24 February, Sunday

    Time Temperature Precipitation Wind Pressure Humidity
    00:00 +28°C° 0 mm 1 mps 752 mmHg 77%
    01:00 +28°C° 0 mm 1 mps 752 mmHg 79%
    02:00 +28°C° 0 mm 1 mps 751 mmHg 79%
    03:00 +28°C° 0 mm 1 mps 751 mmHg 80%
    04:00 +28°C° 0 mm 1 mps 751 mmHg 81%
    05:00 +28°C° 0 mm 1 mps 751 mmHg 80%
    06:00 +28°C° 0 mm 1 mps 752 mmHg 80%
    07:00 +28°C° 0 mm 1 mps 752 mmHg 79%
    08:00 +29°C° 0 mm 1 mps 752 mmHg 74%
    09:00 +28°C° 0 mm 0 mps 752 mmHg 68%
    10:00 +30°C° 0 mm 0 mps 753 mmHg 63%
    11:00 +33°C° 0 mm 1 mps 752 mmHg 59%
    12:00 +34°C° 0 mm 2 mps 751 mmHg 55%
    13:00 +35°C° 0 mm 3 mps 750 mmHg 52%
    14:00 +35°C° 0 mm 4 mps 750 mmHg 53%
    15:00 +35°C° 0 mm 5 mps 749 mmHg 55%
    16:00 +34°C° 0 mm 5 mps 749 mmHg 56%
    17:00 +33°C° 0 mm 5 mps 749 mmHg 62%
    18:00 +32°C° 0 mm 4 mps 750 mmHg 67%
    19:00 +30°C° 0 mm 4 mps 750 mmHg 73%
    20:00 +29°C° 0 mm 3 mps 751 mmHg 74%
    21:00 +29°C° 0 mm 2 mps 752 mmHg 75%
    22:00 +29°C° 0 mm 2 mps 752 mmHg 77%
    23:00 +29°C° 0 mm 2 mps 752 mmHg 78%

    25 February, Monday

    Time Temperature Precipitation Wind Pressure Humidity
    00:00 +28°C° 0 mm 1 mps 752 mmHg 80%
    01:00 +28°C° 0 mm 1 mps 751 mmHg 81%
    02:00 +28°C° 0 mm 1 mps 751 mmHg 83%
    03:00 +27°C° 0 mm 1 mps 751 mmHg 85%
    04:00 +25°C° 0 mm 0 mps 751 mmHg 87%
    05:00 +27°C° 0 mm 1 mps 751 mmHg 86%
    06:00 +27°C° 0 mm 2 mps 752 mmHg 86%
    07:00 +27°C° 0 mm 2 mps 752 mmHg 85%
    08:00 +29°C° 0 mm 2 mps 752 mmHg 76%
    09:00 +31°C° 0 mm 2 mps 752 mmHg 66%
    10:00 +33°C° 0 mm 1 mps 752 mmHg 57%
    11:00 +35°C° 0 mm 2 mps 752 mmHg 54%
    12:00 +36°C° 0 mm 3 mps 751 mmHg 51%
    13:00 +36°C° 0 mm 5 mps 750 mmHg 48%
    14:00 +36°C° 0 mm 5 mps 750 mmHg 51%
    15:00 +35°C° 0 mm 5 mps 749 mmHg 53%
    16:00 +34°C° 0 mm 5 mps 749 mmHg 56%
    17:00 +33°C° 0 mm 5 mps 750 mmHg 62%
    18:00 +32°C° 0 mm 4 mps 750 mmHg 67%
    19:00 +30°C° 0 mm 4 mps 751 mmHg 73%
    20:00 +29°C° 0 mm 3 mps 751 mmHg 74%
    21:00 +29°C° 0 mm 3 mps 752 mmHg 76%
    22:00 +29°C° 0 mm 3 mps 753 mmHg 77%
    23:00 +29°C° 0 mm 2 mps 753 mmHg 78%

    26 February, Tuesday

    Time Temperature Precipitation Wind Pressure Humidity
    00:00 +28°C° 0 mm 2 mps 753 mmHg 80%
    01:00 +28°C° 0 mm 2 mps 752 mmHg 81%
    02:00 +28°C° 0 mm 2 mps 752 mmHg 82%
    03:00 +28°C° 0 mm 2 mps 752 mmHg 83%
    04:00 +28°C° 0 mm 1 mps 752 mmHg 84%
    05:00 +28°C° 0.1 mm 1 mps 753 mmHg 83%
    06:00 +28°C° 0.1 mm 1 mps 753 mmHg 82%
    07:00 +28°C° 0.1 mm 1 mps 753 mmHg 81%
    08:00 +30°C° 0 mm 2 mps 753 mmHg 74%
    09:00 +31°C° 0 mm 2 mps 754 mmHg 66%
    10:00 +34°C° 0 mm 2 mps 754 mmHg 59%
    11:00 +34°C° 0 mm 3 mps 753 mmHg 58%
    12:00 +34°C° 0 mm 4 mps 752 mmHg 57%
    13:00 +35°C° 0 mm 5 mps 751 mmHg 57%
    14:00 +34°C° 0 mm 5 mps 751 mmHg 57%
    15:00 +34°C° 0 mm 5 mps 750 mmHg 58%
    16:00 +34°C° 0 mm 5 mps 750 mmHg 59%
    17:00 +33°C° 0 mm 5 mps 750 mmHg 64%
    18:00 +32°C° 0 mm 4 mps 751 mmHg 69%
    19:00 +30°C° 0 mm 4 mps 751 mmHg 74%
    20:00 +29°C° 0 mm 3 mps 752 mmHg 77%
    21:00 +29°C° 0 mm 3 mps 752 mmHg 79%
    22:00 +29°C° 0 mm 3 mps 753 mmHg 81%
    23:00 +28°C° 0 mm 3 mps 752 mmHg 82%
    Show more